TimeCST,TemperatureF,Dew PointF,Humidity,Sea Level PressureIn,VisibilityMPH,Wind Direction,Wind SpeedMPH,Gust SpeedMPH,PrecipitationIn,Events,Conditions,WindDirDegrees,DateUTC
12:15 AM,28.4,5.0,37,30.38,10.0,SSW,9.2,-,N/A,,Clear,200,2012-11-13 06:15:00
12:35 AM,26.6,3.2,37,30.38,10.0,SSW,10.4,-,N/A,,Clear,200,2012-11-13 06:35:00
12:55 AM,26.6,5.0,40,30.37,10.0,SSW,10.4,-,N/A,,Clear,200,2012-11-13 06:55:00
1:15 AM,26.6,5.0,40,30.36,10.0,South,10.4,-,N/A,,Clear,190,2012-11-13 07:15:00
1:35 AM,26.6,5.0,40,30.36,10.0,SSW,9.2,-,N/A,,Clear,200,2012-11-13 07:35:00
1:55 AM,26.6,5.0,40,30.35,10.0,SSW,10.4,-,N/A,,Clear,200,2012-11-13 07:55:00
2:15 AM,24.8,5.0,43,30.35,10.0,SW,8.1,-,N/A,,Clear,220,2012-11-13 08:15:00
2:35 AM,21.2,5.0,50,30.34,10.0,SSW,9.2,-,N/A,,Clear,210,2012-11-13 08:35:00
2:55 AM,23.0,5.0,46,30.33,10.0,SSW,8.1,-,N/A,,Clear,210,2012-11-13 08:55:00
3:35 AM,24.8,8.6,50,30.32,10.0,South,10.4,-,N/A,,Clear,190,2012-11-13 09:35:00
3:55 AM,23.0,8.6,54,30.32,10.0,SSW,10.4,-,N/A,,Clear,200,2012-11-13 09:55:00
4:15 AM,26.6,8.6,47,30.31,10.0,SSW,8.1,-,N/A,,Clear,200,2012-11-13 10:15:00
4:35 AM,23.0,8.6,54,30.31,10.0,SSW,6.9,-,N/A,,Clear,200,2012-11-13 10:35:00
4:55 AM,26.6,8.6,47,30.31,10.0,SSW,10.4,-,N/A,,Clear,200,2012-11-13 10:55:00
5:15 AM,26.6,8.6,47,30.31,10.0,SSW,10.4,-,N/A,,Clear,210,2012-11-13 11:15:00
5:35 AM,26.6,8.6,47,30.31,10.0,SSW,11.5,-,N/A,,Clear,210,2012-11-13 11:35:00
5:55 AM,24.8,8.6,50,30.31,10.0,SSW,9.2,-,N/A,,Clear,210,2012-11-13 11:55:00
6:15 AM,24.8,8.6,50,30.31,10.0,SSW,10.4,-,N/A,,Clear,210,2012-11-13 12:15:00
6:35 AM,26.6,10.4,51,30.31,10.0,SSW,10.4,-,N/A,,Clear,210,2012-11-13 12:35:00
6:55 AM,24.8,10.4,54,30.31,10.0,South,8.1,-,N/A,,Clear,190,2012-11-13 12:55:00
7:15 AM,26.6,12.2,55,30.31,10.0,SSW,10.4,-,N/A,,Clear,200,2012-11-13 13:15:00
7:35 AM,28.4,12.2,51,30.31,10.0,South,10.4,-,N/A,,Clear,190,2012-11-13 13:35:00
7:55 AM,28.4,12.2,51,30.31,10.0,SSW,9.2,-,N/A,,Clear,200,2012-11-13 13:55:00
8:15 AM,32.0,14.0,48,30.30,10.0,SSW,15.0,-,N/A,,Clear,210,2012-11-13 14:15:00
8:35 AM,33.8,15.8,48,30.30,10.0,SSW,12.7,-,N/A,,Clear,210,2012-11-13 14:35:00
8:55 AM,35.6,15.8,44,30.31,10.0,SSW,13.8,-,N/A,,Clear,210,2012-11-13 14:55:00
9:15 AM,37.4,17.6,45,30.31,10.0,SSW,18.4,-,N/A,,Clear,210,2012-11-13 15:15:00
9:35 AM,39.2,17.6,42,30.31,10.0,SSW,17.3,23.0,N/A,,Clear,210,2012-11-13 15:35:00
9:55 AM,41.0,17.6,39,30.31,10.0,SSW,18.4,24.2,N/A,,Clear,210,2012-11-13 15:55:00
10:15 AM,42.8,17.6,36,30.30,10.0,SSW,20.7,25.3,N/A,,Clear,210,2012-11-13 16:15:00
10:35 AM,42.8,17.6,36,30.30,10.0,SSW,20.7,25.3,N/A,,Clear,210,2012-11-13 16:35:00
10:55 AM,44.6,17.6,34,30.29,10.0,SSW,20.7,25.3,N/A,,Clear,200,2012-11-13 16:55:00
11:15 AM,46.4,15.8,29,30.29,10.0,SW,20.7,27.6,N/A,,Clear,220,2012-11-13 17:15:00
11:35 AM,50.0,15.8,26,30.27,10.0,SW,23.0,-,N/A,,Clear,220,2012-11-13 17:35:00
11:55 AM,50.0,14.0,24,30.26,10.0,SW,24.2,31.1,N/A,,Clear,220,2012-11-13 17:55:00
12:15 PM,50.0,15.8,26,30.24,10.0,SSW,21.9,28.8,N/A,,Clear,200,2012-11-13 18:15:00
12:35 PM,51.8,17.6,26,30.22,10.0,SSW,23.0,28.8,N/A,,Clear,210,2012-11-13 18:35:00
12:55 PM,53.6,17.6,24,30.21,10.0,SSW,23.0,31.1,N/A,,Clear,200,2012-11-13 18:55:00
1:15 PM,51.8,15.8,24,30.19,10.0,SSW,20.7,28.8,N/A,,Clear,210,2012-11-13 19:15:00
1:35 PM,53.6,17.6,24,30.19,10.0,SSW,24.2,32.2,N/A,,Clear,200,2012-11-13 19:35:00
1:55 PM,55.4,17.6,23,30.18,10.0,SSW,21.9,28.8,N/A,,Clear,200,2012-11-13 19:55:00
2:15 PM,55.4,17.6,23,30.17,10.0,SSW,23.0,31.1,N/A,,Clear,200,2012-11-13 20:15:00
2:35 PM,55.4,17.6,23,30.16,10.0,SSW,19.6,28.8,N/A,,Clear,200,2012-11-13 20:35:00
2:55 PM,57.2,17.6,21,30.17,10.0,SW,21.9,27.6,N/A,,Clear,220,2012-11-13 20:55:00
3:15 PM,57.2,17.6,21,30.17,10.0,SW,23.0,27.6,N/A,,Clear,220,2012-11-13 21:15:00
3:35 PM,57.2,17.6,21,30.15,10.0,SSW,19.6,25.3,N/A,,Clear,200,2012-11-13 21:35:00
3:55 PM,55.4,17.6,23,30.16,10.0,SSW,16.1,20.7,N/A,,Clear,210,2012-11-13 21:55:00
4:15 PM,55.4,17.6,23,30.15,10.0,SSW,16.1,24.2,N/A,,Clear,210,2012-11-13 22:15:00
4:35 PM,55.4,15.8,21,30.16,10.0,SSW,18.4,-,N/A,,Clear,210,2012-11-13 22:35:00
4:55 PM,55.4,15.8,21,30.17,10.0,SSW,12.7,-,N/A,,Clear,210,2012-11-13 22:55:00
5:15 PM,53.6,17.6,24,30.17,10.0,SSW,8.1,-,N/A,,Clear,200,2012-11-13 23:15:00
5:35 PM,50.0,17.6,28,30.17,10.0,South,8.1,-,N/A,,Clear,190,2012-11-13 23:35:00
5:55 PM,44.6,15.8,31,30.19,10.0,South,9.2,-,N/A,,Clear,180,2012-11-13 23:55:00
6:15 PM,41.0,14.0,33,30.19,10.0,South,8.1,-,N/A,,Clear,170,2012-11-14 00:15:00
6:35 PM,41.0,15.8,36,30.20,10.0,South,5.8,-,N/A,,Clear,170,2012-11-14 00:35:00
6:55 PM,41.0,14.0,33,30.21,10.0,South,6.9,-,N/A,,Clear,170,2012-11-14 00:55:00
7:15 PM,41.0,17.6,39,30.22,10.0,South,8.1,-,N/A,,Clear,180,2012-11-14 01:15:00
7:35 PM,39.2,15.8,39,30.22,10.0,South,8.1,-,N/A,,Clear,190,2012-11-14 01:35:00
7:55 PM,37.4,17.6,45,30.22,10.0,SSW,5.8,-,N/A,,Clear,200,2012-11-14 01:55:00
8:15 PM,35.6,17.6,48,30.23,10.0,SSW,4.6,-,N/A,,Clear,200,2012-11-14 02:15:00
8:35 PM,35.6,17.6,48,30.24,10.0,SSW,6.9,-,N/A,,Clear,200,2012-11-14 02:35:00
8:55 PM,39.2,17.6,42,30.24,10.0,SSW,11.5,-,N/A,,Clear,210,2012-11-14 02:55:00
9:15 PM,41.0,17.6,39,30.24,10.0,SW,10.4,-,N/A,,Clear,220,2012-11-14 03:15:00
9:35 PM,39.2,17.6,42,30.25,10.0,SW,12.7,-,N/A,,Clear,220,2012-11-14 03:35:00
9:55 PM,37.4,17.6,45,30.26,10.0,SW,11.5,-,N/A,,Clear,220,2012-11-14 03:55:00
10:15 PM,37.4,17.6,45,30.26,10.0,SW,9.2,-,N/A,,Clear,230,2012-11-14 04:15:00
10:35 PM,37.4,17.6,45,30.27,10.0,SW,11.5,-,N/A,,Clear,220,2012-11-14 04:35:00
10:55 PM,35.6,17.6,48,30.28,10.0,WNW,8.1,-,N/A,,Clear,290,2012-11-14 04:55:00
11:15 PM,35.6,17.6,48,30.29,10.0,WNW,5.8,-,N/A,,Clear,290,2012-11-14 05:15:00
11:35 PM,33.8,15.8,48,30.29,10.0,West,9.2,-,N/A,,Clear,270,2012-11-14 05:35:00
11:55 PM,33.8,15.8,48,30.29,10.0,West,6.9,-,N/A,,Clear,260,2012-11-14 05:55:00